Location: Chuathbaluk
(61.5726°N, 159.2454°W)
Time: 17:39:22
(UTC+00:00)

NOAA 15 - Pass Details

Date: 26 January 2021
Orbit: 798 x 812 km, 98.7° (Epoch: 05 March)

Event Time Altitude Azimuth Distance (km) Brightness Sun altitude
Rises 03:36:03 0° 129° (SE) 3,313 7.5 -8.0°
Reaches altitude 10° 03:38:30 10° 121° (ESE) 2,388 6.7 -8.3°
Maximum altitude 03:43:21 39° 55° (NE) 1,195 5.1 -8.8°
Drops below altitude 10° 03:48:16 10° 348° (NNW) 2,408 7.0 -9.3°
Sets 03:50:44 0° 341° (NNW) 3,345 7.8 -9.6°
